Location: Newark
(33.6333°S, 78.8500°W)
Time: 05:15:05
(UTC+00:00)

Tiros 1 - Pass Details

Date: 26 October 2019
Orbit: 630 x 664 km, 48.4° (Epoch: 18 November)

Event Time Altitude Azimuth Distance (km) Brightness Sun altitude
Rises 23:04:02 0° 234° (SW) 2,940 11.9 6.0°
Reaches altitude 10° 23:06:23 10° 237° (WSW) 2,025 11.3 5.5°
Maximum altitude 23:11:00 65° 318° (NW) 699 7.6 4.6°
Drops below altitude 10° 23:15:35 10° 39° (NE) 2,009 9.2 3.6°
Sets 23:17:54 0° 42° (NE) 2,913 10.0 3.2°
